GGN9200 CYQB-CYZV

Flight info

Callsign GGN9200
Flight time 0h 47m
Altitude 33000
Route GADAL Q910 TABRU
Aircraft CRJ9/M-SDFGIRWY/S

Departure

Time 2026-04-22 16:31
Airport Quebec Jean Lesage International Airport (CYQB)

Arrival

Time 2026-04-22 17:19
Airport Sept-Îles Airport (CYZV)
Time Latitude Longitude Altitude Speed Heading
2026-04-22 16:09 46.78998 -71.38461 251 ft 0 kts 21°
2026-04-22 16:22 46.78996 -71.38463 251 ft 2 kts 20°
2026-04-22 16:22 46.78979 -71.38470 251 ft 3 kts
2026-04-22 16:23 46.78948 -71.38450 251 ft 2 kts 287°
2026-04-22 16:23 46.78946 -71.38441 251 ft 1 kts 277°
2026-04-22 16:23 46.78946 -71.38442 251 ft 0 kts 277°
2026-04-22 16:24 46.78947 -71.38454 251 ft 2 kts 277°
2026-04-22 16:24 46.78949 -71.38479 251 ft 3 kts 276°
2026-04-22 16:25 46.78951 -71.38519 251 ft 5 kts 266°
2026-04-22 16:25 46.78889 -71.38568 251 ft 8 kts 178°
2026-04-22 16:25 46.78825 -71.38566 251 ft 10 kts 179°
2026-04-22 16:26 46.78761 -71.38613 251 ft 12 kts 254°
2026-04-22 16:26 46.78767 -71.38743 251 ft 14 kts 278°
2026-04-22 16:26 46.78781 -71.38898 251 ft 16 kts 277°
2026-04-22 16:26 46.78796 -71.39063 251 ft 17 kts 278°
2026-04-22 16:27 46.78812 -71.39231 251 ft 16 kts 278°
2026-04-22 16:27 46.78811 -71.39388 251 ft 15 kts 244°
2026-04-22 16:27 46.78746 -71.39498 251 ft 14 kts 225°
2026-04-22 16:27 46.78680 -71.39594 251 ft 13 kts 225°
2026-04-22 16:28 46.78617 -71.39684 251 ft 13 kts 224°
2026-04-22 16:28 46.78553 -71.39773 251 ft 13 kts 225°
2026-04-22 16:28 46.78490 -71.39865 251 ft 13 kts 224°
2026-04-22 16:28 46.78424 -71.39960 251 ft 13 kts 226°
2026-04-22 16:29 46.78356 -71.40059 251 ft 14 kts 224°
2026-04-22 16:29 46.78285 -71.40159 251 ft 14 kts 224°
2026-04-22 16:29 46.78215 -71.40263 251 ft 14 kts 233°
2026-04-22 16:29 46.78196 -71.40399 251 ft 14 kts 268°
2026-04-22 16:30 46.78195 -71.40494 251 ft 14 kts 275°
2026-04-22 16:30 46.78270 -71.40598 251 ft 11 kts 24°
2026-04-22 16:30 46.78375 -71.40442 251 ft 47 kts 45°
2026-04-22 16:30 46.78750 -71.39902 251 ft 102 kts 44°
2026-04-22 16:31 46.79364 -71.39012 260 ft 143 kts 46°
2026-04-22 16:31 46.80079 -71.37952 636 ft 152 kts 47°
2026-04-22 16:31 46.80845 -71.36856 1240 ft 153 kts 47°
2026-04-22 16:31 46.81611 -71.35740 1817 ft 158 kts 49°
2026-04-22 16:32 46.82354 -71.34530 2370 ft 162 kts 52°
2026-04-22 16:32 46.83029 -71.33169 2735 ft 171 kts 64°
2026-04-22 16:32 46.83668 -71.31636 3123 ft 181 kts 51°
2026-04-22 16:32 46.84643 -71.30490 3701 ft 190 kts 31°
2026-04-22 16:33 46.85963 -71.29642 3924 ft 223 kts 17°
2026-04-22 16:33 46.87488 -71.29053 4739 ft 222 kts 12°
2026-04-22 16:33 46.88943 -71.28523 5689 ft 219 kts 12°
2026-04-22 16:33 46.90476 -71.27766 6070 ft 244 kts 21°
2026-04-22 16:34 46.92028 -71.26548 6539 ft 262 kts 31°
2026-04-22 16:34 46.93555 -71.24999 7044 ft 275 kts 33°
2026-04-22 16:34 46.95107 -71.23343 7838 ft 276 kts 33°
2026-04-22 16:34 46.96667 -71.21653 8593 ft 279 kts 33°
2026-04-22 16:35 46.98214 -71.20006 9361 ft 282 kts 32°
2026-04-22 16:35 46.99811 -71.18314 10142 ft 284 kts 32°
2026-04-22 16:35 47.01425 -71.16617 10854 ft 287 kts 31°
2026-04-22 16:35 47.03056 -71.14903 11579 ft 289 kts 31°
2026-04-22 16:36 47.04706 -71.13181 12300 ft 292 kts 30°
2026-04-22 16:36 47.06352 -71.11456 12979 ft 295 kts 31°
2026-04-22 16:36 47.08028 -71.09698 13695 ft 298 kts 30°
2026-04-22 16:36 47.09724 -71.07902 14368 ft 302 kts 32°
2026-04-22 16:37 47.11312 -71.05830 14963 ft 309 kts 39°
2026-04-22 16:37 47.12816 -71.03590 15553 ft 313 kts 40°
2026-04-22 16:37 47.14366 -71.01217 15724 ft 333 kts 40°
2026-04-22 16:37 47.16047 -70.98707 15765 ft 355 kts 40°
2026-04-22 16:38 47.17840 -70.96055 15831 ft 375 kts 39°
2026-04-22 16:38 47.19714 -70.93294 15933 ft 391 kts 40°
2026-04-22 16:38 47.21660 -70.90431 16260 ft 399 kts 40°
2026-04-22 16:38 47.23634 -70.87524 16803 ft 402 kts 39°
2026-04-22 16:39 47.25622 -70.84603 17295 ft 405 kts 39°
2026-04-22 16:39 47.27624 -70.81656 17798 ft 409 kts 39°
2026-04-22 16:39 47.29642 -70.78679 18282 ft 411 kts 39°
2026-04-22 16:39 47.31672 -70.75678 18714 ft 414 kts 39°
2026-04-22 16:40 47.33689 -70.72697 19124 ft 416 kts 39°
2026-04-22 16:40 47.35746 -70.69653 19534 ft 419 kts 39°
2026-04-22 16:40 47.39879 -70.63531 20292 ft 423 kts 39°
2026-04-22 16:41 47.41968 -70.60429 20688 ft 426 kts 39°
2026-04-22 16:41 47.44064 -70.57310 21073 ft 428 kts 39°
2026-04-22 16:41 47.46142 -70.54222 21403 ft 430 kts 39°
2026-04-22 16:41 47.48273 -70.51056 21752 ft 432 kts 38°
2026-04-22 16:42 47.50420 -70.47930 22101 ft 433 kts 37°
2026-04-22 16:42 47.52615 -70.44868 22435 ft 434 kts 36°
2026-04-22 16:42 47.54871 -70.41868 22750 ft 435 kts 35°
2026-04-22 16:42 47.57116 -70.38900 23135 ft 437 kts 35°
2026-04-22 16:43 47.59399 -70.35903 23405 ft 438 kts 34°
2026-04-22 16:43 47.61676 -70.32946 23695 ft 440 kts 34°
2026-04-22 16:43 47.63982 -70.29914 23941 ft 442 kts 35°
2026-04-22 16:43 47.66277 -70.26864 24170 ft 444 kts 35°
2026-04-22 16:44 47.68589 -70.23779 24397 ft 446 kts 35°
2026-04-22 16:44 47.70875 -70.20723 24617 ft 448 kts 36°
2026-04-22 16:44 47.73202 -70.17610 24830 ft 449 kts 36°
2026-04-22 16:44 47.75528 -70.14492 25047 ft 451 kts 36°
2026-04-22 16:45 47.77842 -70.11386 25286 ft 452 kts 36°
2026-04-22 16:45 47.80191 -70.08232 25448 ft 454 kts 36°
2026-04-22 16:45 47.82521 -70.05091 25652 ft 456 kts 36°
2026-04-22 16:45 47.84880 -70.01911 25831 ft 457 kts 36°
2026-04-22 16:46 47.87247 -69.98718 26100 ft 457 kts 36°
2026-04-22 16:46 47.89601 -69.95543 26397 ft 457 kts 36°
2026-04-22 16:46 47.91966 -69.92345 26666 ft 456 kts 36°
2026-04-22 16:46 47.94290 -69.89197 26925 ft 455 kts 36°
2026-04-22 16:47 47.96640 -69.86012 27212 ft 455 kts 37°
2026-04-22 16:47 47.98986 -69.82824 27451 ft 456 kts 37°
2026-04-22 16:47 48.00548 -69.80703 27625 ft 456 kts 37°
2026-04-22 16:47 48.03655 -69.76477 27974 ft 455 kts 37°
2026-04-22 16:48 48.05995 -69.73286 28232 ft 455 kts 37°
2026-04-22 16:48 48.08339 -69.70086 28497 ft 454 kts 37°
2026-04-22 16:48 48.10673 -69.66895 28738 ft 454 kts 37°
2026-04-22 16:48 48.13003 -69.63708 28984 ft 454 kts 37°
2026-04-22 16:49 48.15340 -69.60510 29252 ft 454 kts 37°
2026-04-22 16:49 48.17672 -69.57308 29486 ft 454 kts 37°
2026-04-22 16:49 48.20003 -69.54106 29745 ft 454 kts 38°
2026-04-22 16:49 48.22304 -69.50941 29975 ft 454 kts 38°
2026-04-22 16:50 48.24634 -69.47733 30217 ft 453 kts 38°
2026-04-22 16:50 48.26960 -69.44527 30412 ft 454 kts 38°
2026-04-22 16:50 48.29288 -69.41313 30583 ft 454 kts 38°
2026-04-22 16:50 48.31616 -69.38094 30752 ft 454 kts 38°
2026-04-22 16:51 48.33914 -69.34918 30913 ft 455 kts 39°
2026-04-22 16:51 48.36247 -69.31681 31090 ft 455 kts 39°
2026-04-22 16:51 48.38584 -69.28436 31274 ft 455 kts 39°
2026-04-22 16:51 48.40911 -69.25202 31458 ft 455 kts 39°
2026-04-22 16:52 48.43243 -69.21957 31640 ft 455 kts 39°
2026-04-22 16:52 48.45537 -69.18762 31822 ft 456 kts 39°
2026-04-22 16:52 48.47864 -69.15515 31996 ft 456 kts 40°
2026-04-22 16:52 48.50200 -69.12253 32189 ft 456 kts 40°
2026-04-22 16:53 48.52535 -69.08986 32329 ft 457 kts 40°
2026-04-22 16:53 48.54875 -69.05706 32504 ft 458 kts 40°
2026-04-22 16:53 48.57179 -69.02474 32672 ft 458 kts 40°
2026-04-22 16:53 48.59535 -68.99165 32851 ft 458 kts 40°
2026-04-22 16:54 48.61847 -68.95915 33042 ft 458 kts 40°
2026-04-22 16:54 48.66522 -68.89327 33180 ft 463 kts 41°
2026-04-22 16:55 48.71280 -68.82606 33213 ft 471 kts 41°
2026-04-22 16:55 48.76100 -68.75780 33219 ft 478 kts 41°
2026-04-22 16:56 48.81003 -68.68814 33232 ft 485 kts 41°
2026-04-22 16:56 48.85955 -68.61758 33226 ft 489 kts 41°
2026-04-22 16:57 48.90923 -68.54660 33229 ft 494 kts 41°
2026-04-22 16:57 48.95930 -68.47484 33232 ft 495 kts 41°
2026-04-22 16:58 49.00111 -68.41478 33218 ft 496 kts 42°
2026-04-22 16:58 49.05960 -68.33057 33210 ft 497 kts 42°
2026-04-22 16:59 49.10936 -68.25839 32920 ft 498 kts 42°
2026-04-22 16:59 49.13398 -68.22197 32256 ft 486 kts 44°
2026-04-22 16:59 49.15740 -68.18426 31601 ft 497 kts 46°
2026-04-22 16:59 49.18044 -68.14416 30953 ft 511 kts 47°
2026-04-22 17:00 49.20311 -68.10365 30317 ft 487 kts 47°
2026-04-22 17:00 49.24640 -68.02837 28908 ft 460 kts 46°
2026-04-22 17:00 49.26754 -67.99201 28221 ft 450 kts 46°
2026-04-22 17:01 49.28813 -67.95645 27568 ft 440 kts 45°
2026-04-22 17:01 49.30802 -67.92207 26960 ft 431 kts 46°
2026-04-22 17:01 49.32768 -67.88789 26367 ft 423 kts 46°
2026-04-22 17:01 49.34702 -67.85437 25798 ft 415 kts 45°
2026-04-22 17:02 49.36606 -67.82145 25251 ft 407 kts 45°
2026-04-22 17:02 49.38449 -67.78944 24729 ft 401 kts 45°
2026-04-22 17:02 49.40276 -67.75750 24230 ft 395 kts 46°
2026-04-22 17:02 49.42092 -67.72607 23714 ft 389 kts 45°
2026-04-22 17:03 49.43872 -67.69499 23145 ft 383 kts 45°
2026-04-22 17:03 49.45599 -67.66468 22578 ft 379 kts 45°
2026-04-22 17:03 49.47333 -67.63437 22033 ft 374 kts 45°
2026-04-22 17:03 49.49044 -67.60441 21512 ft 370 kts 45°
2026-04-22 17:04 49.50167 -67.58479 21170 ft 367 kts 45°
2026-04-22 17:04 49.52408 -67.54551 20504 ft 362 kts 45°
2026-04-22 17:04 49.54044 -67.51670 20015 ft 359 kts 45°
2026-04-22 17:04 49.55691 -67.48783 19530 ft 356 kts 45°
2026-04-22 17:05 49.57324 -67.45907 19068 ft 353 kts 45°
2026-04-22 17:05 49.58942 -67.43077 18639 ft 350 kts 45°
2026-04-22 17:05 49.60538 -67.40318 18132 ft 348 kts 45°
2026-04-22 17:05 49.62141 -67.37531 17623 ft 345 kts 45°
2026-04-22 17:06 49.63734 -67.34760 17130 ft 343 kts 46°
2026-04-22 17:06 49.64777 -67.32929 16809 ft 341 kts 46°
2026-04-22 17:06 49.66845 -67.29284 16179 ft 338 kts 46°
2026-04-22 17:06 49.68389 -67.26549 15718 ft 335 kts 46°
2026-04-22 17:07 49.69407 -67.24744 15419 ft 334 kts 46°
2026-04-22 17:07 49.70923 -67.22048 14976 ft 331 kts 46°
2026-04-22 17:07 49.72919 -67.18500 14397 ft 328 kts 46°
2026-04-22 17:07 49.74405 -67.15848 13966 ft 325 kts 46°
2026-04-22 17:08 49.75387 -67.14099 13656 ft 323 kts 46°
2026-04-22 17:08 49.76857 -67.11475 13193 ft 321 kts 46°
2026-04-22 17:08 49.78319 -67.08865 12743 ft 318 kts 47°
2026-04-22 17:08 49.79742 -67.06307 12308 ft 315 kts 46°
2026-04-22 17:09 49.81172 -67.03752 11882 ft 312 kts 47°
2026-04-22 17:09 49.82587 -67.01216 11464 ft 309 kts 47°
2026-04-22 17:09 49.83988 -66.98705 11063 ft 306 kts 47°
2026-04-22 17:09 49.85370 -66.96211 10658 ft 303 kts 48°
2026-04-22 17:10 49.86720 -66.93766 10273 ft 300 kts 47°
2026-04-22 17:10 49.88067 -66.91318 9857 ft 296 kts 48°
2026-04-22 17:10 49.89405 -66.88901 9437 ft 293 kts 47°
2026-04-22 17:10 49.90716 -66.86524 9034 ft 290 kts 47°
2026-04-22 17:11 49.92029 -66.84159 8637 ft 287 kts 47°
2026-04-22 17:11 49.93312 -66.81841 8268 ft 284 kts 48°
2026-04-22 17:11 49.94606 -66.79520 7879 ft 280 kts 48°
2026-04-22 17:11 49.95873 -66.77242 7509 ft 277 kts 48°
2026-04-22 17:12 49.97116 -66.75022 7164 ft 273 kts 48°
2026-04-22 17:12 49.98357 -66.72791 6809 ft 270 kts 48°
2026-04-22 17:12 49.99581 -66.70588 6452 ft 267 kts 49°
2026-04-22 17:12 50.00780 -66.68415 6092 ft 263 kts 49°
2026-04-22 17:13 50.01949 -66.66299 5744 ft 259 kts 49°
2026-04-22 17:13 50.03115 -66.64182 5410 ft 256 kts 49°
2026-04-22 17:13 50.04268 -66.62085 5035 ft 254 kts 49°
2026-04-22 17:13 50.05407 -66.59988 4622 ft 252 kts 50°
2026-04-22 17:14 50.06513 -66.57912 4238 ft 250 kts 51°
2026-04-22 17:14 50.07601 -66.55808 3973 ft 243 kts 52°
2026-04-22 17:14 50.08631 -66.53790 3694 ft 238 kts 51°
2026-04-22 17:14 50.09706 -66.51854 3428 ft 233 kts 49°
2026-04-22 17:15 50.10413 -66.50605 3201 ft 232 kts 49°
2026-04-22 17:15 50.11835 -66.48080 2708 ft 231 kts 50°
2026-04-22 17:15 50.12886 -66.46191 2360 ft 229 kts 50°
2026-04-22 17:15 50.13928 -66.44342 2061 ft 225 kts 50°
2026-04-22 17:16 50.14907 -66.42610 2029 ft 206 kts 50°
2026-04-22 17:16 50.15840 -66.40988 1858 ft 196 kts 50°
2026-04-22 17:16 50.16701 -66.39505 1886 ft 172 kts 48°
2026-04-22 17:16 50.17511 -66.38228 1567 ft 165 kts 46°
2026-04-22 17:17 50.18399 -66.36942 1177 ft 187 kts 44°
2026-04-22 17:17 50.19360 -66.35634 1207 ft 171 kts 43°
2026-04-22 17:17 50.20098 -66.34401 1106 ft 140 kts 57°
2026-04-22 17:17 50.20511 -66.33129 836 ft 131 kts 73°
2026-04-22 17:18 50.20780 -66.31757 657 ft 137 kts 75°
2026-04-22 17:18 50.21148 -66.30297 552 ft 151 kts 70°
2026-04-22 17:18 50.21515 -66.28761 361 ft 142 kts 73°
2026-04-22 17:18 50.21861 -66.27404 173 ft 124 kts 71°
2026-04-22 17:19 50.22273 -66.25735 175 ft 41 kts 68°
2026-04-22 17:19 50.22306 -66.25260 178 ft 16 kts 177°
2026-04-22 17:20 50.22125 -66.25377 178 ft 16 kts 255°
2026-04-22 17:20 50.22022 -66.25789 178 ft 22 kts 248°
2026-04-22 17:21 50.21966 -66.26008 178 ft 20 kts 248°
2026-04-22 17:21 50.21922 -66.26384 178 ft 18 kts 224°
2026-04-22 17:22 50.21874 -66.26482 178 ft 3 kts 203°
2026-04-22 17:22 50.21858 -66.26479 178 ft 3 kts 156°
2026-04-22 17:22 50.21830 -66.26463 178 ft 0 kts 161°
2026-04-22 17:23 50.21829 -66.26462 178 ft 0 kts 161°